Tracking 33200 objects as of 17-Feb-2026
HD Live streaming from Space Station
objects crossing your sky now

STARLINK-30515

Track STARLINK-30515 now!
10-day predictions
STARLINK-30515 is classified as:


NORAD ID: 57983
Int'l Code: 2023-151V
Perigee: 565.3 km
Apogee: 567.2 km
Inclination: 43.0 °
Period: 95.8 minutes
Semi major axis: 6937 km
RCS: Unknown
Launch date: September 30, 2023
Source: United States (US)
Launch site: AIR FORCE EASTERN TEST RANGE (AFETR)
Your satellite tracking list
Your tracking list is empty




NASA's NSSDC Master Catalog

Two Line Element Set (TLE):
1 57983U 23151V   26048.44572663  .00000580  00000-0  58037-4 0  9991
2 57983  43.0028 101.9144 0001405 262.0654  98.0029 15.02531644132539
Source of the keplerian elements: AFSPC